Flag for Canada Weather past 2 weeks in Colchester County, Nova Scotia, Canada

Now
59 °F

Passing clouds.


Feels Like: 57 °F
Forecast: 55 / 73 °F
Wind: 10 mph from Southwest

Location: Halifax International Airport

Current Time: Jul 2, 2015 at 11:51:34 PM

Latest Report: Jul 2, 2015 at 11:00 PM


Visibility: 15 mi

Pressure: 29.87 "Hg

Humidity: 82%

Dew point: 54 °F

Location of Colchester CountyLocation

Historic Weather in Colchester County — Graph

°F

Colchester County temperature yesterday

Maximum temperature yesterday: 73 °F (at 1:00 PM)
Minimum temperature yesterday: 54 °F (at 1:50 AM)
Average temperature yesterday: 63 °F

Past Weeks' High & Low Weather Summary

 TemperatureHumidityPressure
High77 °F (Jul 2, 4:00 PM)100% (Jun 19, 1:00 PM)30.23 "Hg (Jun 19, 1:00 PM)
Low43 °F (Jun 27, 5:00 AM)31% (Jun 25, 1:00 PM)29.48 "Hg (Jun 22, 5:00 AM)
Average58 °F80%29.94 "Hg
* Reported Jun 17 10:00 PM — Jul 2 10:00 PM, Colchester County, Weather by CustomWeather, © 2015

Note: Actual official high and low records may vary slightly from our data, if they occured in-between our weather recording intervals... More about our weather records

Advertising

Colchester County weather history for previous 24 hours

 ConditionsComfort  
Time TempWeatherWind HumidityBarometerVisibility
10:00 PM
Thu, Jul 2
63 °FPartly sunny.10 mph77%29.87 "Hg15 mi
9:00 PM66 °FPartly sunny.9 mph68%29.85 "Hg15 mi
8:00 PM68 °FPartly sunny.9 mph64%29.83 "Hg15 mi
7:00 PM72 °FScattered clouds.13 mph61%29.82 "Hg15 mi
6:00 PM73 °FPassing clouds.15 mph57%29.81 "Hg15 mi
5:00 PM75 °FPartly sunny.15 mph54%29.81 "Hg15 mi
4:00 PM77 °FScattered clouds.16 mph54%29.80 "Hg15 mi
3:00 PM75 °FPartly sunny.16 mph61%29.80 "Hg15 mi
2:00 PM73 °FPartly sunny.18 mph65%29.81 "Hg15 mi
1:00 PM73 °FPartly sunny.16 mph65%29.80 "Hg15 mi
12:00 PM70 °FPartly sunny.14 mph73%29.81 "Hg15 mi
11:00 AM68 °FPartly sunny.13 mph78%29.81 "Hg15 mi
10:00 AM63 °FFog.10 mph94%29.81 "Hg4 mi
9:00 AM61 °FFog.10 mph100%29.80 "Hg0 mi
8:00 AM61 °FFog.13 mph100%29.80 "Hg0 mi
7:00 AM61 °FFog.6 mph94%29.81 "Hg0 mi
6:00 AM61 °FFog.14 mph100%29.80 "Hg1 mi
5:50 AM63 °FFog.12 mph94%29.80 "Hg1 mi
5:00 AM63 °FFog.9 mph94%29.80 "Hg1 mi
4:00 AM61 °FFog.8 mph94%29.82 "Hg0 mi
3:00 AM59 °FFog.8 mph100%29.83 "Hg0 mi
2:46 AM59 °FFog.9 mph100%29.83 "Hg1 mi
2:00 AM59 °FFog.8 mph100%29.84 "Hg1 mi
1:00 AM59 °FFog.13 mph94%29.85 "Hg0 mi
12:00 AM59 °FFog.13 mph100%29.85 "Hg0 mi
11:00 PM
Wed, Jul 1
59 °FFog.13 mph100%29.86 "Hg0 mi
Weather by CustomWeather, © 2015

See weather overviewHow to use our weather pages